Temperature
18 18 18 19 19 19 18 18 18 18 17 17 17 17 17 17 17 17 17 17 17 17 17 17 17 17 17 17 17 17 17 17 17 17 17 17 17 17 17 17 17 17 17
18 18 18 18 18 18 18 18 18 18 17 17 17 17 17 17 17 17 17 17 17 17 17 17 17 17 17 17 17 17 17 17 17 17 17 17 17 17 17 17 17 17 17
18 18 18 18 18 18 18 18 18 18 18 18 18 18 17 17 17 17 17 17 17 17 17 17 17 17 17 17 17 17 17 17 17 17 17 16 16 16 16 16 16 16 16
18 18 18 18 18 18 18 17 18 17 18 18 18 18 17 17 17 17 17 17 17 17 17 17 17 17 17 17 17 17 17 17 16 16 16 16 16 16 16 16 16 16 16
18 18 18 18 18 18 18 17 17 17 18 18 18 17 17 17 17 17 17 17 17 17 17 17 17 17 17 17 17 17 17 17 16 16 16 16 16 16 16 16 16 16 16
18 18 18 18 18 18 18 18 18 17 18 18 17 17 17 17 17 17 17 17 17 17 17 17 17 17 17 17 17 17 17 16 16 16 16 16 16 16 16 16 16 16 16
18 18 18 18 18 18 18 18 17 17 17 17 17 17 17 17 17 17 17 17 17 17 17 17 16 16 16 16 16 16 16 16 16 16 16 16 16 16 16 16 16 16 16
18 18 18 18 18 18 18 17 17 17 17 17 17 17 17 17 17 17 17 17 17 17 17 17 16 16 16 16 16 16 16 16 16 16 16 16 16 16 16 16 16 16 16
18 18 18 18 17 17 17 17 17 17 17 17 17 17 17 17 17 17 17 17 17 17 17 17 17 16 16 16 16 16 16 16 16 16 16 16 16 16 16 16 16 16 16
17 17 17 17 17 17 17 17 17 16 16 16 16 16 16 17 17 17 17 17 17 17 17 17 17 16 16 16 16 16 16 16 16 16 16 16 16 16 16 16 16 16 16
17 17 17 17 17 17 17 16 16 16 16 16 16 16 16 16 16 16 16 17 17 17 17 17 17 16 16 16 16 16 16 16 16 15 15 15 16 16 16 16 16 15 15
16 16 16 16 16 16 16 16 16 16 16 16 15 15 15 15 16 16 16 16 16 16 16 16 16 16 16 16 16 16 16 16 15 15 15 15 15 15 15 15 15 15 15
15 16 16 16 16 16 16 15 15 15 15 15 15 15 15 15 15 15 15 15 15 15 16 16 16 16 16 16 16 16 16 16 15 15 15 15 15 15 15 15 15 15 15
15 15 15 15 15 15 15 15 15 15 15 15 15 15 15 15 15 15 15 15 15 15 15 16 16 16 16 16 16 16 16 16 15 15 15 15 15 15 15 15 15 15 15
15 15 15 14 14 14 14 14 14 14 14 14 14 14 15 15 14 15 15 15 15 14 15 15 15 16 16 16 16 16 16 15 15 15 15 15 14 14 14 15 15 15 14
14 14 14 14 14 14 14 14 14 14 14 14 14 14 14 14 14 14 14 14 14 14 14 15 15 15 15 15 15 15 15 15 15 15 15 14 14 14 14 14 14 14 14
14 14 14 14 14 14 14 14 14 14 14 14 14 14 14 14 14 14 14 14 14 14 14 14 14 14 15 15 15 15 15 15 15 15 15 14 14 14 14 14 14 14 14
13 13 13 14 14 14 14 14 14 14 14 14 14 14 14 14 14 14 14 14 14 14 14 14 14 14 14 14 14 14 14 14 14 14 14 14 14 14 14 14 14 14 14
13 13 13 13 13 14 14 14 14 14 14 14 14 14 14 14 14 14 14 14 14 14 14 13 14 14 14 14 14 14 14 14 14 14 14 14 14 14 14 14 14 13 13
13 13 13 13 13 13 14 14 14 14 14 14 14 14 14 14 14 14 14 14 14 14 13 13 13 13 14 14 14 14 13 13 13 13 14 14 13 13 13 13 13 13 13
13 13 13 13 13 13 13 13 14 14 14 14 14 14 14 14 14 14 14 14 14 14 13 13 13 13 13 13 13 13 13 13 13 13 13 13 13 13 13 13 13 13 13
12 12 13 13 13 13 13 13 13 13 13 14 14 14 14 14 14 14 14 14 13 13 13 13 13 13 13 13 13 13 13 13 13 13 13 13 12 13 13 13 13 13 12
11 12 12 12 12 12 13 13 13 13 13 13 13 13 13 13 14 14 14 13 13 13 13 13 13 13 13 13 13 13 13 13 12 12 12 12 12 12 12 12 12 12 12
11 11 11 12 12 12 12 12 13 13 13 13 13 13 13 13 13 13 13 13 13 13 13 13 13 13 13 13 13 12 12 12 12 12 12 11 11 11 11 11 11 11 12
11 11 11 11 11 12 12 12 12 12 13 13 13 13 13 13 13 13 13 13 13 13 13 13 13 13 13 12 12 12 12 12 12 12 11 11 11 11 11 11 11 11 11
10 10 11 11 11 11 11 12 12 12 12 12 12 12 12 13 13 13 13 13 13 13 13 13 12 12 12 12 12 12 12 12 12 11 11 11 11 11 10 10 10 10 10
Wind_Speed
4 5 5 6 6 6 5 4 3 3 3 3 3 4 4 5 5 4 3 3 3 3 3 4 4 4 4 4 4 5 5 6 6 6 6 5 4 4 4 3 3 2 2
7 5 4 5 6 7 7 5 4 3 2 2 3 4 6 6 6 5 4 3 3 3 3 3 4 4 4 4 4 4 5 5 5 5 5 4 4 3 3 3 2 2 2
10 7 5 5 6 8 7 5 4 3 2 2 2 3 4 6 6 6 5 4 3 2 2 3 3 4 4 4 4 4 4 5 4 4 4 4 4 3 3 3 3 3 3
14 9 6 6 7 7 5 3 3 2 2 2 2 2 2 4 5 6 5 5 4 3 3 3 3 3 3 4 4 4 4 4 4 4 4 3 3 3 4 4 4 4 4
15 10 7 6 8 5 4 5 3 3 3 3 3 2 2 3 4 5 5 6 6 5 4 4 3 3 4 4 4 4 4 4 4 4 3 3 3 4 4 4 5 5 5
13 10 6 7 6 5 5 4 4 3 3 4 3 2 1 2 2 4 5 6 7 7 6 5 4 4 4 4 4 4 4 4 4 4 4 4 4 4 4 4 5 5 6
11 9 7 6 6 6 6 6 4 4 2 3 3 1 1 1 3 4 3 4 6 8 8 7 6 5 5 5 5 5 5 5 5 4 4 3 3 4 4 4 5 5 6
11 10 9 7 6 6 6 6 5 4 3 3 4 2 1 2 2 2 3 5 5 5 7 9 9 8 7 6 6 6 6 5 5 5 4 4 3 3 3 4 4 5 6
8 8 8 7 6 6 6 6 6 6 4 3 3 4 4 5 2 2 2 3 4 4 5 7 9 10 10 9 8 8 8 7 6 6 5 5 4 4 3 4 4 5 5
6 6 6 7 7 6 6 6 6 4 5 4 2 2 2 3 3 1 2 2 3 5 5 5 7 10 11 11 11 11 10 10 8 8 6 6 5 4 4 4 4 4 4
3 5 5 6 7 6 7 7 6 6 5 5 4 3 2 1 2 3 2 2 2 3 4 5 5 8 10 12 13 13 13 12 11 9 8 7 6 5 4 4 4 4 4
2 4 4 5 5 6 7 8 8 8 7 6 5 4 4 3 4 4 4 3 2 3 2 3 5 6 9 12 13 14 15 15 13 12 10 8 7 6 5 5 5 4 4
1 3 3 4 4 4 5 6 6 6 6 6 6 5 4 4 3 4 4 3 2 2 2 2 3 5 7 9 12 14 15 15 15 14 12 10 8 7 6 6 6 5 4
1 2 3 3 3 4 4 5 5 5 5 6 6 5 4 4 4 4 4 4 2 1 2 3 2 2 5 7 9 11 11 14 15 14 13 11 10 9 7 7 6 6 5
1 1 2 2 2 3 3 4 4 4 4 5 5 5 4 4 5 5 4 4 5 3 3 3 2 1 2 3 5 7 9 11 12 14 13 13 12 10 9 8 8 7 5
3 2 3 3 2 2 2 3 3 3 3 3 3 4 4 3 3 4 4 4 4 4 3 2 2 1 2 1 2 4 6 7 9 10 12 12 12 11 11 10 9 8 7
5 4 4 3 3 3 2 2 2 3 3 3 3 4 4 4 3 3 3 3 3 3 3 1 1 1 1 2 2 1 1 3 5 7 9 10 11 11 11 11 11 10 9
6 5 5 4 3 3 3 2 2 3 3 3 3 3 3 3 4 3 3 4 3 3 3 2 0 1 1 2 1 1 1 0 2 4 6 8 9 10 11 11 11 11 11
8 7 6 5 4 4 3 3 3 3 2 2 3 3 3 4 3 3 3 3 3 3 2 2 1 1 1 2 2 2 2 2 1 1 2 4 6 7 9 9 10 11 11
8 8 7 6 6 5 5 4 3 3 3 3 2 2 3 4 4 4 3 4 4 4 3 2 1 1 1 1 2 2 2 3 2 3 3 2 2 3 5 6 8 9 10
9 8 8 7 6 5 5 5 3 3 3 4 3 3 2 3 4 4 4 4 5 4 3 3 2 1 1 2 1 1 1 1 2 2 2 3 3 2 2 2 3 5 6
9 9 9 8 8 7 8 8 5 4 4 4 4 3 4 4 4 5 5 6 6 5 4 3 2 2 1 1 1 1 1 2 2 3 2 3 3 2 3 3 3 3 3
9 10 10 9 8 9 10 8 8 5 5 5 4 4 4 4 5 4 6 6 5 5 5 5 4 2 2 1 2 2 2 2 1 2 2 2 3 3 4 7 8 7 5
7 8 9 9 8 10 12 10 8 6 6 6 5 5 5 4 4 4 5 6 6 6 5 4 4 2 2 2 2 2 2 2 2 2 2 2 2 3 3 7 11 11 10
8 7 7 9 9 10 13 10 8 5 6 6 5 6 5 4 5 6 6 6 6 5 7 9 9 7 6 6 4 3 3 3 2 2 3 2 2 2 3 4 9 12 13
6 7 8 9 9 10 13 12 9 4 5 5 5 6 7 6 6 6 5 5 5 4 4 5 7 9 8 8 8 4 3 3 2 2 2 2 2 1 2 3 5 10 10
Wind_Direction
209 215 224 226 229 229 227 237 250 267 279 278 258 227 215 208 210 218 238 235 204 189 176 164 158 158 152 151 152 149 147 144 144 142 137 137 137 140 139 140 146 147 145
211 212 221 223 224 221 221 224 236 247 263 262 247 219 210 206 209 212 224 239 228 204 189 182 169 165 163 162 161 159 157 156 153 154 154 156 159 163 170 174 189 207 222
213 212 214 223 225 218 213 221 234 230 237 233 232 207 196 199 201 208 215 226 236 227 215 206 194 183 180 176 172 167 165 163 165 173 177 181 185 190 204 216 232 245 251
212 209 211 224 223 206 193 198 204 202 213 206 203 203 191 194 204 210 216 224 230 235 233 224 208 201 205 202 196 187 180 177 180 185 188 191 198 210 226 238 249 257 259
211 206 211 221 211 190 189 201 187 183 193 196 192 193 196 196 203 212 217 223 227 231 233 234 228 223 223 219 213 206 201 199 198 202 206 212 218 227 237 247 253 258 263
208 204 209 213 202 192 194 188 182 180 184 179 174 155 195 217 210 215 218 220 224 228 230 232 230 231 234 231 227 220 216 212 212 220 226 227 223 230 242 254 260 264 269
197 198 208 204 196 198 199 185 168 167 166 141 117 83 331 277 232 231 221 218 223 224 224 226 225 229 237 238 233 231 230 227 223 226 237 238 231 239 253 264 272 278 278
196 199 197 195 191 193 189 182 165 158 163 158 143 135 243 305 269 230 222 225 229 218 220 224 222 224 229 235 237 239 241 240 236 235 242 242 237 245 256 268 278 286 289
199 195 188 186 185 188 191 189 179 166 172 182 171 155 167 217 255 286 242 231 227 218 222 221 222 225 226 230 237 241 242 242 242 242 242 241 241 246 257 271 282 292 295
193 189 185 182 182 182 184 190 183 177 166 179 190 188 177 161 167 243 295 263 236 226 226 223 224 226 226 228 233 237 238 239 240 241 243 245 245 250 256 267 282 291 293
187 177 182 180 184 185 185 185 182 182 184 181 178 167 159 135 145 171 236 279 290 252 232 223 222 228 228 227 230 233 233 235 236 238 243 247 248 251 255 264 276 286 294
176 172 179 185 189 191 191 192 188 189 192 186 183 177 170 168 185 182 201 224 249 275 263 236 223 228 230 228 231 233 231 232 232 233 237 241 247 253 259 265 272 281 288
191 187 179 183 185 190 190 185 186 192 189 186 188 194 193 191 171 171 177 195 223 276 296 272 239 233 235 232 235 234 232 230 230 231 232 233 237 244 255 263 269 273 280
179 179 166 166 173 176 176 172 177 185 183 190 197 196 199 202 188 182 173 167 185 255 280 271 284 242 242 235 238 234 233 231 230 229 230 230 234 237 244 252 261 270 280
64 113 144 150 157 163 163 160 169 177 178 189 197 200 204 209 201 196 180 170 168 196 242 260 275 311 270 248 245 227 228 231 229 228 229 230 232 235 238 241 248 254 260
45 78 100 117 128 127 143 147 156 167 176 189 193 196 198 198 193 183 180 175 177 180 211 236 256 297 322 322 253 219 229 232 229 228 230 230 232 235 238 239 240 240 241
38 44 62 89 99 101 107 132 158 170 177 188 192 193 194 180 177 174 166 166 174 170 196 232 254 319 357 14 29 46 218 223 230 232 233 233 234 236 238 238 239 238 238
31 38 44 58 70 75 82 100 121 128 144 165 175 173 179 165 159 156 159 167 170 169 174 199 317 3 18 20 30 44 52 148 229 240 236 236 238 239 240 239 238 238 238
35 36 42 48 52 57 66 68 84 97 120 143 151 153 151 144 140 139 146 153 152 149 148 156 148 41 35 31 40 37 40 32 13 300 255 248 245 244 243 242 240 240 241
32 31 35 39 37 42 46 46 54 73 79 79 92 121 134 149 158 156 153 150 138 128 128 129 123 72 51 32 56 43 30 25 16 12 13 358 303 267 257 253 249 245 246
34 32 35 33 27 32 33 36 40 62 71 74 69 76 102 141 159 156 147 144 137 128 125 118 108 79 53 51 53 37 45 17 25 19 14 21 27 31 358 316 279 261 255
28 32 31 28 28 29 31 42 51 59 68 72 71 66 75 85 106 108 127 141 144 140 140 130 121 120 120 108 89 63 60 55 27 9 25 15 24 29 16 9 355 337 311
28 31 28 25 24 18 28 39 49 61 65 59 60 67 76 76 77 85 90 93 94 107 130 141 137 151 154 166 135 94 78 78 61 352 20 24 17 27 25 33 35 35 28
27 28 26 22 23 20 25 38 54 60 66 61 57 62 70 63 72 97 100 89 75 64 80 93 114 125 141 154 147 133 124 93 61 28 26 52 20 26 24 35 40 45 45
28 26 24 25 25 17 23 36 54 59 63 55 49 50 57 62 73 100 105 101 85 68 74 85 84 81 86 92 104 99 86 79 56 20 16 52 24 20 35 34 37 44 48
26 26 30 28 27 21 25 36 51 59 61 53 45 39 42 57 75 94 100 108 104 86 82 72 62 57 59 61 62 72 104 101 93 42 7 33 25 33 67 38 33 32 39
Height
1548 1549 1549 1550 1551 1552 1553 1555 1556 1558 1559 1560 1561 1562 1563 1563 1563 1563 1563 1562 1562 1562 1563 1564 1565 1566 1567 1568 1569 1569 1570 1571 1572 1573 1574 1574 1575 1576 1577 1577 1578 1578 1579
1546 1547 1548 1549 1550 1551 1552 1554 1555 1557 1558 1559 1560 1561 1562 1563 1563 1563 1562 1562 1562 1562 1563 1563 1564 1565 1566 1567 1568 1569 1570 1571 1571 1572 1573 1574 1575 1575 1576 1576 1577 1578 1578
1543 1545 1546 1547 1548 1550 1551 1553 1554 1556 1557 1558 1559 1560 1561 1561 1562 1562 1562 1562 1562 1562 1562 1563 1563 1564 1565 1566 1567 1568 1569 1570 1571 1571 1572 1573 1574 1574 1575 1575 1576 1576 1577
1540 1542 1543 1544 1546 1548 1549 1551 1552 1554 1555 1556 1557 1558 1559 1560 1561 1561 1562 1562 1562 1562 1562 1562 1563 1563 1564 1565 1566 1567 1568 1569 1569 1570 1571 1572 1572 1573 1573 1574 1574 1575 1575
1536 1538 1539 1541 1543 1545 1547 1548 1550 1551 1553 1554 1556 1556 1557 1558 1559 1560 1561 1561 1561 1562 1562 1562 1562 1562 1563 1564 1565 1566 1567 1568 1568 1569 1570 1570 1571 1571 1572 1572 1573 1573 1573
1532 1533 1535 1538 1539 1541 1543 1545 1547 1549 1550 1552 1553 1554 1555 1556 1557 1558 1559 1560 1560 1561 1561 1561 1562 1562 1562 1563 1564 1564 1565 1566 1567 1567 1568 1569 1569 1570 1570 1570 1571 1571 1571
1526 1528 1530 1533 1535 1536 1539 1541 1543 1545 1547 1549 1550 1552 1553 1553 1554 1555 1557 1557 1558 1559 1560 1560 1561 1561 1561 1562 1562 1563 1564 1565 1565 1566 1566 1567 1567 1568 1568 1569 1569 1569 1569
1521 1523 1525 1527 1529 1532 1534 1536 1539 1541 1543 1545 1547 1548 1549 1551 1551 1552 1553 1554 1556 1557 1558 1559 1559 1560 1561 1561 1562 1562 1563 1563 1564 1564 1565 1565 1566 1566 1566 1566 1567 1567 1567
1515 1518 1520 1522 1524 1527 1529 1532 1534 1536 1538 1541 1542 1545 1545 1546 1547 1548 1549 1551 1552 1553 1555 1556 1557 1558 1559 1560 1561 1561 1562 1562 1563 1563 1563 1563 1564 1564 1564 1564 1564 1565 1565
1510 1512 1514 1517 1519 1521 1524 1527 1529 1532 1534 1536 1538 1540 1542 1542 1544 1544 1546 1547 1548 1549 1551 1553 1554 1556 1557 1558 1559 1560 1561 1561 1562 1562 1562 1562 1562 1562 1562 1562 1562 1562 1562
1505 1507 1510 1512 1514 1516 1519 1521 1523 1526 1529 1531 1533 1535 1537 1538 1540 1541 1542 1543 1544 1546 1547 1549 1550 1552 1554 1555 1556 1558 1559 1559 1560 1560 1560 1560 1560 1560 1560 1560 1560 1560 1560
1501 1503 1505 1507 1509 1511 1513 1515 1518 1521 1523 1526 1528 1530 1532 1534 1535 1537 1538 1539 1540 1542 1543 1545 1546 1548 1550 1551 1553 1555 1556 1557 1557 1558 1558 1558 1558 1558 1558 1558 1558 1558 1558
1498 1500 1502 1504 1505 1507 1509 1511 1513 1516 1518 1521 1523 1525 1528 1529 1531 1533 1534 1535 1536 1538 1539 1541 1542 1544 1546 1547 1549 1551 1552 1554 1555 1555 1556 1556 1556 1556 1556 1556 1556 1556 1556
1496 1498 1499 1501 1502 1503 1505 1507 1509 1511 1514 1516 1519 1521 1523 1525 1527 1528 1530 1532 1533 1534 1535 1537 1538 1540 1541 1543 1544 1546 1548 1550 1551 1552 1553 1553 1554 1554 1554 1554 1554 1554 1554
1495 1496 1497 1499 1500 1502 1503 1504 1506 1508 1510 1513 1515 1517 1519 1521 1523 1524 1526 1528 1530 1530 1532 1533 1535 1536 1537 1539 1540 1542 1543 1545 1547 1549 1549 1550 1551 1551 1551 1551 1551 1552 1551
1495 1496 1497 1498 1499 1500 1502 1503 1504 1506 1508 1510 1512 1514 1516 1518 1519 1521 1522 1524 1526 1528 1529 1530 1531 1533 1534 1535 1536 1538 1539 1541 1543 1544 1546 1547 1547 1548 1548 1548 1549 1549 1549
1496 1497 1497 1498 1499 1500 1501 1502 1503 1505 1507 1509 1510 1512 1514 1516 1517 1519 1520 1522 1523 1525 1526 1528 1528 1529 1530 1532 1533 1534 1536 1537 1539 1540 1541 1542 1543 1544 1545 1545 1545 1545 1546
1498 1498 1498 1499 1499 1500 1501 1502 1503 1505 1506 1507 1509 1511 1513 1515 1516 1517 1518 1520 1521 1522 1524 1525 1526 1527 1528 1529 1530 1531 1532 1534 1535 1536 1537 1538 1539 1540 1541 1541 1541 1542 1542
1500 1500 1500 1500 1501 1501 1502 1503 1504 1505 1506 1507 1509 1510 1512 1513 1515 1516 1517 1518 1519 1521 1522 1523 1524 1525 1526 1526 1527 1529 1529 1530 1532 1533 1534 1534 1535 1536 1536 1537 1537 1537 1538
1503 1503 1503 1502 1502 1503 1503 1504 1504 1505 1506 1507 1509 1510 1511 1513 1514 1515 1517 1518 1519 1520 1521 1522 1522 1523 1524 1524 1526 1526 1527 1528 1529 1530 1530 1531 1531 1532 1532 1532 1533 1533 1533
1506 1505 1504 1504 1504 1504 1504 1504 1505 1506 1507 1508 1509 1510 1511 1513 1514 1515 1516 1517 1518 1519 1520 1521 1521 1522 1523 1523 1524 1525 1525 1526 1526 1527 1528 1528 1528 1528 1529 1529 1529 1529 1529
1508 1507 1506 1505 1505 1505 1505 1505 1506 1506 1507 1508 1509 1510 1512 1513 1514 1515 1516 1517 1518 1519 1520 1521 1521 1522 1522 1523 1523 1524 1524 1525 1525 1526 1526 1526 1526 1526 1526 1526 1526 1526 1525
1510 1509 1508 1507 1506 1506 1506 1506 1506 1507 1508 1509 1510 1511 1512 1513 1515 1516 1517 1518 1519 1519 1520 1521 1521 1522 1522 1523 1523 1523 1524 1524 1524 1524 1525 1525 1525 1524 1524 1524 1524 1523 1523
1513 1511 1510 1509 1508 1508 1507 1507 1507 1507 1508 1509 1511 1512 1513 1514 1515 1516 1517 1518 1519 1520 1520 1521 1522 1522 1523 1523 1523 1524 1523 1523 1524 1524 1524 1524 1524 1524 1524 1523 1523 1522 1522
1516 1514 1513 1512 1511 1510 1509 1509 1509 1509 1510 1511 1512 1513 1514 1515 1516 1517 1518 1519 1520 1520 1521 1522 1522 1523 1523 1524 1524 1524 1524 1524 1524 1524 1524 1524 1524 1524 1524 1523 1523 1522 1521
1519 1517 1516 1514 1513 1512 1511 1511 1511 1511 1511 1512 1513 1514 1515 1516 1516 1517 1518 1519 1520 1521 1522 1522 1523 1523 1524 1524 1524 1524 1524 1524 1524 1524 1524 1524 1524 1524 1524 1524 1523 1523 1522